Location: Eferding
(48.3167°N, 14.0167°E)
Time: 07:45:36
(UTC+00:00)

Cosmos 1607 - Pass Details

Date: 12 November 2019
Orbit: 928 x 974 km, 65.0° (Epoch: 09 December)

Event Time Altitude Azimuth Distance (km) Brightness Sun altitude
Rises 17:04:36 0° 321° (NW) 3,602 7.4 -15.9°
Reaches altitude 10° 17:07:08 10° 322° (NW) 2,660 6.7 -16.3°
Maximum altitude 17:13:22 87° 50° (NE) 954 3.9 -17.3°
Drops below altitude 10° 17:19:39 10° 143° (SE) 2,678 6.0 -18.3°
Enters shadow 17:20:49 - 143° (SE) 3,107 6.3 -18.5°
